Location: Cubitt Town
(51.4833°N, 0.0000°E)
Time: 23:22:35
(UTC+00:00)

Cosmos 2322 Rocket - Pass Details

Date: 15 May 2026
Orbit: 831 x 850 km, 71.0° (Epoch: 11 June)

Event Time Altitude Azimuth Distance (km) Brightness Sun altitude
Rises 22:16:16 0° 324° (NW) 3,408 7.0 -16.1°
Reaches altitude 10° 22:18:54 10° 316° (NW) 2,472 5.8 -16.3°
Maximum altitude 22:23:56 34° 253° (WSW) 1,369 3.3 -16.6°
Enters shadow 22:27:27 18° 200° (SSW) 1,988 3.7 -16.8°
